Weather in Tabuk

Philippines     17°24′58″N   121°26′41″E
temp.,
°C
wind,
m/s
gust,
m/s
humid.,
%
clouds,
%
prec.,
mm/h
press.,
hPa
HPBL,
m
16 may, sun
sun1623:00+26s487142 0.0 1011315
02:00+25s35795 0.0 1010143
05:00+23ssw23840 0.0 101176
08:00+29sse34615 0.0 1012661
11:00+35sse44370 0.0 10101566
14:00+38se33255 0.0 10072177
17:00+36se22315 0.0 10062294
20:00+28wnw236533 0.0 101077
17 may, mon
mon1723:00+27s24715 0.0 1011105
02:00+25s36765 0.0 1010167
05:00+24s24825 0.0 1010101
08:00+29sse45630 0.0 1011669
11:00+34sse44400 0.0 10101460
14:00+38se33235 0.0 10072063
17:00+37ese222710 0.0 10062255
20:00+29wsw236089 0.0 101060
18 may, tue
tue1823:00+26s486938 0.0 1011285
02:00+25ssw247344 0.0 1010110
05:00+24ssw237982 0.0 101052
08:00+29s45605 0.0 1011650
11:00+34sse554027 0.0 10101611
14:00+37s343014 0.0 10062248
17:00+35ese553730 0.0 10061219
20:00+29ssw475372 0.0 1009296
19 may, wed
wed1923:00+26s49735 0.0 1011341
02:00+25ssw35785 0.0 1009132
05:00+24ssw227957 0.0 101037
08:00+29sse3463100 0.0 1011746
11:00+34sse454147 0.0 10091602
14:00+37se3329100 0.0 10062112
17:00+37se233098 0.0 10052499
20:00+28wsw356236 0.5 1009152
20 may, thu
thu2023:00+26ssw597244 0.0 1010363
02:00+25ssw24759 0.0 100992
05:00+23ssw237963 0.0 100957
08:00+29sse346063 0.0 1010749
11:00+34sse444097 0.0 10081500
14:00+37ese3229100 0.0 10052138
17:00+32n91151100 0.0 1006880
20:00+28n587013 0.1 1009440